Tiempo cada hora Çekerek

Hoy, 20 Abril, Martes

Tiempo Temperatura Precipitaciones Viento Presión Humedad
00:00 +20°C° 0 mm 6 mps 673 mmHg 37%
01:00 +19°C° 0 mm 6 mps 672 mmHg 39%
02:00 +17°C° 0 mm 5 mps 672 mmHg 44%
03:00 +17°C° 0 mm 4 mps 672 mmHg 47%
04:00 +17°C° 0 mm 4 mps 672 mmHg 49%
05:00 +16°C° 0 mm 3 mps 672 mmHg 51%
06:00 +16°C° 0 mm 3 mps 672 mmHg 53%
07:00 +17°C° 0 mm 3 mps 673 mmHg 54%
08:00 +17°C° 0 mm 3 mps 674 mmHg 56%
09:00 +18°C° 0 mm 4 mps 674 mmHg 52%
10:00 +19°C° 0 mm 5 mps 674 mmHg 48%
11:00 +20°C° 0 mm 5 mps 674 mmHg 44%
12:00 +21°C° 0 mm 6 mps 674 mmHg 42%
13:00 +21°C° 0 mm 6 mps 674 mmHg 39%
14:00 +22°C° 0 mm 6 mps 674 mmHg 37%
15:00 +21°C° 0 mm 6 mps 674 mmHg 38%
16:00 +20°C° 0 mm 5 mps 674 mmHg 38%
17:00 +19°C° 0 mm 5 mps 674 mmHg 38%
18:00 +18°C° 0 mm 4 mps 674 mmHg 40%
19:00 +16°C° 0 mm 3 mps 674 mmHg 42%
20:00 +14°C° 0 mm 3 mps 675 mmHg 44%
21:00 +14°C° 0 mm 2 mps 675 mmHg 51%
22:00 +13°C° 0 mm 2 mps 675 mmHg 58%
23:00 +13°C° 0 mm 2 mps 675 mmHg 64%

Mañana, 21 Abril, Miércoles

Tiempo Temperatura Precipitaciones Viento Presión Humedad
00:00 +12°C° 0 mm 2 mps 675 mmHg 71%
01:00 +10°C° 0 mm 2 mps 675 mmHg 77%
02:00 +8°C° 0 mm 2 mps 675 mmHg 84%
03:00 +9°C° 0 mm 1 mps 676 mmHg 87%
04:00 +8°C° 0 mm 1 mps 676 mmHg 90%
05:00 +8°C° 0 mm 1 mps 676 mmHg 92%
06:00 +9°C° 0 mm 1 mps 677 mmHg 85%
07:00 +10°C° 0 mm 1 mps 677 mmHg 78%
08:00 +11°C° 0 mm 1 mps 677 mmHg 71%
09:00 +13°C° 0 mm 1 mps 678 mmHg 63%
10:00 +14°C° 0 mm 1 mps 678 mmHg 55%
11:00 +16°C° 0 mm 2 mps 678 mmHg 46%
12:00 +16°C° 0 mm 2 mps 678 mmHg 44%
13:00 +17°C° 0 mm 3 mps 678 mmHg 41%
14:00 +18°C° 0 mm 3 mps 677 mmHg 39%
15:00 +17°C° 0 mm 3 mps 677 mmHg 40%
16:00 +17°C° 0 mm 3 mps 677 mmHg 42%
17:00 +17°C° 0 mm 3 mps 677 mmHg 43%
18:00 +14°C° 0 mm 3 mps 677 mmHg 52%
19:00 +14°C° 0 mm 2 mps 677 mmHg 61%
20:00 +12°C° 0 mm 2 mps 677 mmHg 69%
21:00 +10°C° 0 mm 2 mps 678 mmHg 74%
22:00 +9°C° 0 mm 2 mps 678 mmHg 79%
23:00 +9°C° 0 mm 1 mps 678 mmHg 84%

Pasado mañana, 22 Abril, Jueves

Tiempo Temperatura Precipitaciones Viento Presión Humedad
00:00 +9°C° 0 mm 1 mps 678 mmHg 87%
01:00 +8°C° 0 mm 1 mps 678 mmHg 90%
02:00 +8°C° 0 mm 1 mps 678 mmHg 93%
03:00 +8°C° 0 mm 1 mps 678 mmHg 93%
04:00 +7°C° 0 mm 1 mps 678 mmHg 93%
05:00 +7°C° 0 mm 1 mps 678 mmHg 93%
06:00 +9°C° 0 mm 1 mps 678 mmHg 86%
07:00 +10°C° 0 mm 1 mps 679 mmHg 78%
08:00 +11°C° 0 mm 1 mps 679 mmHg 71%
09:00 +13°C° 0.1 mm 1 mps 679 mmHg 63%
10:00 +14°C° 0.1 mm 2 mps 679 mmHg 55%
11:00 +16°C° 0.1 mm 2 mps 679 mmHg 46%
12:00 +16°C° 0.1 mm 3 mps 679 mmHg 45%
13:00 +16°C° 0.1 mm 3 mps 679 mmHg 43%
14:00 +17°C° 0.1 mm 4 mps 679 mmHg 41%
15:00 +15°C° 0.1 mm 4 mps 679 mmHg 44%
16:00 +14°C° 0.1 mm 4 mps 679 mmHg 46%
17:00 +14°C° 0.1 mm 4 mps 679 mmHg 49%
18:00 +12°C° 0 mm 3 mps 680 mmHg 61%
19:00 +10°C° 0 mm 2 mps 680 mmHg 72%
20:00 +8°C° 0 mm 2 mps 680 mmHg 84%
21:00 +9°C° 0 mm 1 mps 680 mmHg 86%
22:00 +9°C° 0 mm 1 mps 680 mmHg 88%
23:00 +8°C° 0 mm 1 mps 680 mmHg 91%

23 Abril, Viernes

Tiempo Temperatura Precipitaciones Viento Presión Humedad
00:00 +8°C° 0 mm 1 mps 680 mmHg 91%
01:00 +6°C° 0 mm 0 mps 680 mmHg 92%
02:00 +6°C° 0 mm 0 mps 680 mmHg 93%
03:00 +6°C° 0 mm 0 mps 680 mmHg 92%
04:00 +6°C° 0 mm 0 mps 680 mmHg 92%
05:00 +6°C° 0 mm 0 mps 680 mmHg 91%
06:00 +7°C° 0 mm 0 mps 680 mmHg 82%
07:00 +9°C° 0 mm 0 mps 681 mmHg 72%
08:00 +11°C° 0 mm 0 mps 681 mmHg 63%
09:00 +14°C° 0 mm 1 mps 681 mmHg 53%
10:00 +16°C° 0 mm 1 mps 681 mmHg 43%
11:00 +18°C° 0 mm 1 mps 681 mmHg 33%
12:00 +18°C° 0 mm 2 mps 681 mmHg 30%
13:00 +19°C° 0 mm 2 mps 680 mmHg 27%
14:00 +20°C° 0 mm 2 mps 680 mmHg 24%
15:00 +20°C° 0 mm 2 mps 680 mmHg 25%
16:00 +19°C° 0 mm 2 mps 679 mmHg 27%
17:00 +19°C° 0 mm 3 mps 679 mmHg 28%
18:00 +18°C° 0 mm 2 mps 679 mmHg 32%
19:00 +16°C° 0 mm 1 mps 679 mmHg 35%
20:00 +15°C° 0 mm 1 mps 679 mmHg 39%
21:00 +14°C° 0 mm 1 mps 679 mmHg 40%
22:00 +14°C° 0 mm 1 mps 678 mmHg 40%
23:00 +13°C° 0 mm 1 mps 678 mmHg 41%

24 Abril, Sábado

Tiempo Temperatura Precipitaciones Viento Presión Humedad
00:00 +13°C° 0 mm 1 mps 678 mmHg 43%
01:00 +12°C° 0 mm 1 mps 678 mmHg 44%
02:00 +12°C° 0 mm 1 mps 678 mmHg 46%
03:00 +11°C° 0 mm 1 mps 678 mmHg 51%
04:00 +11°C° 0 mm 1 mps 678 mmHg 56%
05:00 +10°C° 0 mm 1 mps 678 mmHg 60%
06:00 +11°C° 0 mm 1 mps 679 mmHg 57%
07:00 +13°C° 0 mm 1 mps 679 mmHg 54%
08:00 +14°C° 0 mm 1 mps 679 mmHg 51%
09:00 +16°C° 0 mm 1 mps 680 mmHg 46%
10:00 +18°C° 0 mm 1 mps 680 mmHg 42%
11:00 +19°C° 0 mm 2 mps 680 mmHg 38%
12:00 +19°C° 0 mm 2 mps 680 mmHg 37%
13:00 +20°C° 0 mm 2 mps 680 mmHg 37%
14:00 +21°C° 0 mm 3 mps 679 mmHg 36%
15:00 +20°C° 0 mm 3 mps 679 mmHg 39%
16:00 +20°C° 0 mm 3 mps 679 mmHg 43%
17:00 +19°C° 0 mm 3 mps 679 mmHg 46%
18:00 +17°C° 0 mm 2 mps 679 mmHg 52%
19:00 +16°C° 0 mm 2 mps 679 mmHg 58%
20:00 +14°C° 0 mm 2 mps 679 mmHg 64%
21:00 +14°C° 0 mm 2 mps 678 mmHg 67%
22:00 +13°C° 0 mm 2 mps 678 mmHg 70%
23:00 +12°C° 0 mm 2 mps 678 mmHg 73%

25 Abril, Domingo

Tiempo Temperatura Precipitaciones Viento Presión Humedad
00:00 +12°C° 0 mm 1 mps 677 mmHg 74%
01:00 +11°C° 0 mm 1 mps 677 mmHg 75%
02:00 +11°C° 0 mm 1 mps 677 mmHg 75%
03:00 +11°C° 0 mm 1 mps 676 mmHg 75%
04:00 +11°C° 0 mm 1 mps 676 mmHg 74%
05:00 +11°C° 0 mm 1 mps 676 mmHg 74%
06:00 +12°C° 0.1 mm 1 mps 676 mmHg 73%
07:00 +13°C° 0.1 mm 1 mps 676 mmHg 72%
08:00 +13°C° 0.1 mm 1 mps 677 mmHg 71%
09:00 +14°C° 0.3 mm 1 mps 676 mmHg 68%
10:00 +15°C° 0.3 mm 2 mps 676 mmHg 66%
11:00 +16°C° 0.3 mm 2 mps 676 mmHg 63%
12:00 +17°C° 0 mm 3 mps 676 mmHg 59%
13:00 +18°C° 0 mm 4 mps 676 mmHg 55%
14:00 +19°C° 0 mm 5 mps 675 mmHg 52%
15:00 +19°C° 0.1 mm 3 mps 675 mmHg 54%
16:00 +18°C° 0.1 mm 2 mps 674 mmHg 57%
17:00 +19°C° 0.1 mm 1 mps 674 mmHg 60%
18:00 +16°C° 0.7 mm 2 mps 674 mmHg 70%
19:00 +15°C° 0.7 mm 2 mps 674 mmHg 79%
20:00 +12°C° 0.7 mm 3 mps 675 mmHg 88%
21:00 +13°C° 0.9 mm 2 mps 675 mmHg 88%
22:00 +13°C° 0.9 mm 2 mps 675 mmHg 88%
23:00 +12°C° 0.9 mm 1 mps 675 mmHg 89%
Mostrar más

Necesitamos Su Consentimiento

Meteoprog y nuestros Proveedores de Servicios pueden almacenar y acceder a sus datos personales como cookies, identificadores de dispositivo u otras tecnologías similares de su dispositivo y procesar dichos datos para personalizar contenido y anuncios, además de ofrecer funciones de redes sociales y analizar el tráfico.

  • Almacenar y/o acceder a información en su dispositivo

    Se puede almacenar o acceder a cookies, identificadores de dispositivo u otra información de su dispositivo para los fines anteriormente indicados.

  • Anuncios y contenido personalizados, medición de anuncios y contenido, percepciones del público, y desarrollo de productos

    Los anuncios y el contenido pueden personalizarse en base a su perfil. Se pueden añadir más datos para personalizar mejor los anuncios y contenidos. Se puede medir el rendimiento de los anuncios y contenidos. Se puede obtener la percepción sobre el público que ha visto los anuncios y contenidos. Dichos datos pueden usarse para desarrollar o mejorar la experiencia del usuario, sistemas y software.

Al hacer clic en ‘Estoy De Acuerdo’ usted permitirá el uso de las cookies, identificadores de dispositivo, balizas web u otras tecnologías similares indicadas. Su configuración puede cambiarse desde el navegador de su dispositivo.

Para ciertos fines, los intereses legítimos pueden ser considerados por encima del consentimiento. Puede leer más sobre ello en nuestra Política de Privacidad y Cookies.